Flag for USA

Past Weather in Fairfield Historic District, Louisiana, USA — Yesterday and Last 2 Weeks

Now
68 °F

Mostly cloudy.


Feels Like: 68 °F
Forecast: 68 / 41 °F
Wind: 9 mph from South

Location: Shreveport Regional Airport

Current Time: Dec 15, 2019 at 11:06:25 pm

Latest Report: Dec 15, 2019 at 9:56 pm


Visibility: 10 mi

Pressure: 29.82 "Hg

Humidity: 90%

Dew Point: 65 °F

Location of Fairfield Historic DistrictLocation

Past Weather in Fairfield Historic District — Graph

°F

Fairfield Historic District Temperature Yesterday

Maximum temperature yesterday: 65 °F (at 2:56 pm)
Minimum temperature yesterday: 40 °F (at 7:37 am)
Average temperature yesterday: 50 °F

High & Low Weather Summary for the Past Weeks

 TemperatureHumidityPressure
High79 °F (Dec 15, 1:56 pm)100% (Dec 7, 10:44 pm)30.58 "Hg (Dec 7, 10:44 pm)
Low30 °F (Dec 3, 5:56 am)22% (Dec 4, 1:56 pm)29.73 "Hg (Dec 15, 1:56 pm)
Average52 °F74%30.07 "Hg
* Reported Nov 30 9:56 pm — Dec 15 9:56 pm, Fairfield Historic District. Weather by CustomWeather, © 2019

Note: Actual official high and low records may vary slightly from our data, if they occured in-between our weather recording intervals... More about our weather records

Fairfield Historic District Weather History for the Previous 24 Hours

Scroll right to see more
 ConditionsComfort  
Time TempWeatherWind HumidityBarometerVisibility
9:56 pm
Sun, Dec 15
68 °FMostly cloudy.9 mph90%29.82 "Hg10 mi
8:56 pm68 °FOvercast.6 mph87%29.81 "Hg10 mi
7:56 pm68 °FPartly cloudy.8 mph84%29.80 "Hg10 mi
6:56 pm71 °FPassing clouds.7 mph76%29.79 "Hg10 mi
5:56 pm70 °FPassing clouds.7 mph76%29.77 "Hg10 mi
4:56 pm76 °FPartly sunny.10 mph62%29.76 "Hg10 mi
3:56 pm79 °FPartly sunny.15 mph56%29.75 "Hg10 mi
2:56 pm79 °FPartly sunny.17 mph56%29.74 "Hg10 mi
1:56 pm79 °FScattered clouds.13 mph60%29.73 "Hg10 mi
1:17 pm77 °FPartly sunny.18 mph64%29.75 "Hg10 mi
12:56 pm76 °FPartly sunny.15 mph67%29.75 "Hg10 mi
12:06 pm70 °FCloudy.13 mph76%29.79 "Hg10 mi
10:56 am62 °FLow clouds.10 mph90%29.83 "Hg7 mi
10:20 am59 °FLow clouds.12 mph93%29.85 "Hg4 mi
10:07 am58 °FLow clouds.12 mph93%29.86 "Hg2 mi
9:56 am57 °FLow clouds.9 mph96%29.85 "Hg1 mi
9:38 am56 °FFog.9 mph97%29.85 "Hg1 mi
9:06 am55 °FFog.9 mph96%29.85 "Hg1 mi
8:26 am54 °FFog.8 mph93%29.85 "Hg2 mi
8:08 am53 °FFog.9 mph96%29.84 "Hg4 mi
7:56 am53 °FFog.9 mph93%29.84 "Hg5 mi
6:56 am52 °FLow clouds.7 mph93%29.84 "Hg9 mi
5:56 am51 °FMostly cloudy.8 mph92%29.85 "Hg9 mi
5:14 am51 °FMostly cloudy.7 mph92%29.85 "Hg8 mi
4:56 am51 °FLow clouds.6 mph92%29.85 "Hg8 mi
4:20 am50 °FOvercast.7 mph93%29.85 "Hg8 mi
3:56 am50 °FOvercast.8 mph93%29.85 "Hg8 mi
2:56 am49 °FPassing clouds.7 mph93%29.87 "Hg7 mi
1:56 am47 °FClear.5 mph97%29.87 "Hg8 mi
12:56 am48 °FClear.5 mph93%29.87 "Hg9 mi
11:56 pm
Sat, Dec 14
47 °FClear.3 mph93%29.88 "Hg8 mi
Weather by CustomWeather, © 2019

See weather overview

Advertising